Wind_Speed
24 20 20 18 17 17 16 17 18 17 15 13 15 18 17 12 13 16 17 16 14 15 16 16 16 16 16 15 15 15 16 18 18 19 19 20 20 21 19 19 18 19 20
20 20 18 16 16 15 15 15 17 16 16 15 16 13 14 11 12 17 19 16 17 18 17 17 17 16 16 15 15 16 18 20 20 19 19 19 20 21 20 19 19 20 20
18 18 17 15 14 13 13 13 14 15 15 15 14 10 14 16 24 20 20 17 20 19 18 17 17 17 17 17 17 17 18 20 18 18 18 19 20 20 21 19 20 20 20
17 17 16 14 12 12 12 13 12 14 15 15 15 15 16 21 26 19 21 17 18 18 18 18 17 18 18 17 17 17 17 18 19 19 19 19 20 20 21 20 19 19 19
18 17 15 14 13 11 11 12 13 13 15 15 16 16 17 19 21 22 19 16 17 17 17 16 17 18 19 18 18 17 17 16 17 20 19 19 19 20 20 18 18 18 18
19 17 15 14 13 12 10 11 13 14 15 15 16 16 17 19 20 19 17 18 17 17 16 16 17 17 16 16 18 17 17 17 17 19 19 19 19 19 18 17 17 18 18
18 17 15 14 13 12 12 12 15 16 15 15 15 15 16 17 19 18 16 16 16 15 15 15 17 15 15 15 15 15 15 14 18 18 18 18 17 16 15 16 16 17 16
15 16 14 13 13 12 13 14 16 16 16 15 14 15 16 17 17 16 16 15 15 15 14 14 15 13 13 16 16 14 15 14 16 18 17 16 16 15 14 14 15 15 14
14 14 13 13 12 13 13 14 15 15 15 15 15 14 15 15 15 15 15 14 14 13 12 12 13 12 12 13 12 15 12 13 16 15 15 14 13 15 14 13 13 13 13
12 13 13 12 13 12 12 12 13 13 14 13 14 14 14 15 14 12 12 14 13 12 11 10 10 11 11 10 11 12 8 7 12 14 13 14 12 12 13 12 12 11 10
11 12 12 11 11 12 12 12 12 12 12 12 12 12 13 12 11 10 10 9 10 9 9 8 7 8 9 10 8 8 8 9 7 9 11 13 11 10 10 10 11 9 9
11 13 12 10 9 10 11 12 11 11 11 11 12 12 12 12 9 8 8 7 7 8 7 7 7 6 5 7 7 8 8 7 2 8 8 12 11 9 8 8 8 10 9
8 13 12 11 10 8 8 10 12 12 10 11 11 11 10 10 11 10 8 7 6 7 8 5 7 7 4 3 6 5 6 8 4 8 8 8 10 9 9 6 8 8 8
13 11 11 9 10 11 9 9 8 10 9 10 10 11 10 11 11 11 9 8 6 7 8 7 5 4 4 4 8 6 5 7 11 11 9 9 9 9 8 8 8 8 9
13 10 10 10 11 10 8 8 9 9 10 12 11 11 11 10 11 11 9 9 9 9 8 7 3 5 4 3 7 5 6 8 11 11 12 10 12 11 11 9 9 9 9
6 6 11 11 10 9 9 8 9 10 14 14 11 9 9 8 6 10 9 9 10 10 8 8 5 7 5 4 5 7 8 9 8 12 10 9 11 14 14 14 12 12 12
3 4 1 7 8 7 4 5 13 12 11 10 11 8 7 6 6 7 7 7 7 8 9 9 7 6 4 3 3 8 12 12 11 11 13 15 15 17 17 15 16 16 15
10 9 7 4 6 6 5 6 5 8 10 9 7 7 7 7 5 5 8 11 7 5 5 7 7 6 4 3 4 5 7 10 13 14 14 13 14 19 23 20 19 18 18
11 14 11 6 7 7 7 11 7 5 4 9 9 4 3 5 4 5 3 8 4 5 6 4 5 4 2 4 4 5 8 9 11 10 13 12 11 13 22 20 20 21 20
13 14 14 12 10 8 8 14 11 7 3 5 8 6 4 2 3 2 2 1 3 6 5 4 4 2 2 4 5 7 6 9 6 8 9 14 14 15 15 20 23 24 23
19 16 13 14 11 10 9 14 14 10 6 3 5 6 6 5 3 3 2 1 2 5 5 2 2 2 2 3 4 6 6 7 6 6 4 5 15 16 19 19 18 22 24
17 14 11 10 12 11 8 10 13 14 10 8 7 7 7 6 4 4 4 3 2 2 3 3 1 4 4 5 6 6 6 7 6 5 5 5 6 14 15 18 19 18 23
19 14 10 8 11 10 9 13 16 17 17 13 7 5 6 7 6 5 5 4 3 2 3 3 4 6 7 3 6 8 5 4 7 6 7 7 10 10 10 12 18 18 20
14 16 13 11 11 11 9 8 18 15 13 11 8 8 8 8 8 8 7 7 5 4 3 3 5 5 2 4 5 7 7 3 6 8 6 8 7 10 14 13 10 20 22
8 12 12 12 13 11 9 8 10 13 12 12 11 10 9 9 9 9 8 8 6 5 5 5 4 3 7 6 7 9 3 8 6 7 11 12 13 10 8 9 10 15 23
6 11 12 14 12 11 10 9 9 9 10 10 9 7 6 7 8 9 10 10 9 7 6 5 5 4 5 7 8 5 7 7 5 8 11 12 8 7 6 5 8 11 15
Wind_Direction
136 134 128 127 124 121 120 120 112 113 112 100 90 91 77 88 140 136 124 107 117 125 115 105 107 108 106 106 108 107 106 101 100 101 106 107 109 109 110 111 112 111 109
134 134 133 133 128 124 123 122 115 116 114 113 120 94 62 62 150 141 130 108 109 119 114 107 103 104 106 105 106 106 103 100 99 104 110 113 113 113 113 112 112 111 111
139 137 136 136 130 125 125 122 116 113 110 115 125 106 67 68 134 133 137 105 111 114 112 108 112 112 110 107 108 106 107 108 107 112 113 114 114 114 113 113 112 109 109
140 139 137 135 128 126 127 124 121 114 109 113 115 105 87 91 118 123 127 103 116 113 116 117 115 109 106 106 104 102 103 108 112 114 114 117 117 116 113 113 112 109 108
142 141 138 136 130 126 125 128 126 121 113 115 119 112 97 95 105 115 120 113 115 116 115 116 113 111 103 101 101 104 103 108 116 116 117 116 116 115 112 112 111 108 107
142 140 140 135 127 121 123 132 132 124 117 115 118 118 110 102 105 112 118 118 118 120 118 112 110 108 113 113 113 115 119 124 121 117 118 119 119 113 110 111 110 109 107
142 139 137 130 121 114 107 118 131 127 121 119 120 122 120 114 111 114 116 116 117 120 118 114 116 122 119 110 106 108 115 120 119 113 114 117 118 112 112 110 111 109 106
142 138 137 129 121 111 105 115 127 129 126 123 124 123 119 122 118 113 110 116 120 119 122 123 129 130 127 119 128 116 120 125 117 115 117 119 119 115 112 112 113 111 109
148 141 138 133 126 116 111 116 127 130 127 125 123 128 125 129 124 117 114 118 115 123 130 131 134 142 130 128 122 136 119 130 123 121 121 121 122 121 117 114 112 113 112
149 149 144 141 133 127 120 120 126 129 129 127 125 129 132 135 131 123 119 124 127 124 131 137 146 147 139 131 129 137 135 143 127 129 130 125 127 127 124 122 120 115 114
160 157 151 149 143 141 137 134 133 132 130 130 127 129 134 138 142 129 131 131 132 128 128 130 135 145 153 147 146 138 144 130 143 142 146 138 133 132 130 134 129 122 114
164 158 158 153 152 153 152 149 142 140 139 137 134 135 140 140 141 134 136 136 137 132 125 129 136 149 155 151 158 145 142 145 104 178 185 152 153 150 145 142 137 133 128
171 164 160 167 153 159 164 157 157 153 151 141 137 134 133 142 142 144 148 144 148 144 141 138 138 156 161 184 162 184 187 182 232 187 213 190 166 166 152 161 157 150 146
130 156 166 173 170 166 169 163 164 153 151 153 145 142 139 141 139 137 150 142 147 126 131 148 164 170 219 181 201 190 215 200 193 209 210 209 202 197 180 174 182 173 164
149 163 157 160 189 182 180 159 154 146 152 146 147 151 149 168 150 151 155 145 121 127 140 165 135 152 180 230 197 231 227 228 207 210 224 232 232 218 219 196 192 190 184
159 162 153 153 153 183 210 143 134 155 171 154 135 139 139 155 169 166 167 153 141 137 135 140 142 155 205 241 247 256 257 248 234 233 226 225 231 238 231 217 203 196 197
249 240 192 171 169 170 179 159 156 166 184 175 137 140 140 146 149 165 196 141 142 142 133 139 153 147 194 262 308 268 255 255 246 244 245 221 227 234 235 231 218 203 201
253 263 267 262 221 201 197 232 158 171 163 143 128 133 131 133 137 136 159 144 149 158 169 149 150 159 177 335 311 317 271 261 257 259 252 243 238 240 229 229 232 223 205
256 252 260 275 268 230 221 231 228 185 143 140 133 136 139 122 130 116 155 193 171 144 184 177 158 143 220 330 4 327 321 287 283 273 242 214 244 239 217 227 231 236 222
242 253 260 265 266 252 231 220 230 227 193 144 130 138 148 169 176 136 127 125 159 157 181 186 183 191 293 340 322 318 331 335 291 280 246 235 227 229 225 235 237 232 231
232 237 254 263 272 268 264 241 230 233 231 187 142 161 170 186 212 213 212 57 122 150 147 189 200 262 317 328 325 318 316 325 303 315 274 241 217 227 229 233 232 225 225
239 234 237 260 267 270 263 230 225 230 233 221 200 184 190 196 205 220 233 227 215 176 178 184 199 323 283 317 300 299 311 304 307 312 283 293 258 238 233 232 234 230 226
241 238 234 238 254 253 243 218 218 217 218 232 226 193 195 208 209 210 231 250 265 235 222 237 237 282 329 311 300 294 276 278 284 276 273 295 265 269 256 271 249 240 218
232 240 238 237 242 246 246 238 207 218 222 232 235 221 210 218 215 221 216 233 245 259 258 251 258 260 340 296 298 274 284 290 310 314 281 267 279 266 255 278 266 229 227
227 223 233 231 234 236 241 222 206 203 203 208 214 214 217 229 233 227 223 232 252 252 245 241 259 259 247 275 299 321 301 341 314 354 332 279 259 263 262 299 285 242 228
254 202 213 228 236 234 234 224 213 207 215 215 214 207 205 221 233 230 224 223 230 248 265 267 267 261 275 279 287 303 288 291 304 328 334 342 263 262 276 302 295 237 230
Height
3192 3195 3197 3199 3200 3201 3202 3202 3202 3203 3203 3202 3201 3202 3201 3202 3204 3206 3208 3210 3211 3211 3211 3212 3212 3213 3213 3214 3214 3215 3215 3214 3214 3214 3215 3216 3217 3218 3219 3219 3220 3220 3220
3194 3196 3199 3201 3202 3203 3204 3204 3203 3205 3206 3206 3205 3205 3205 3204 3204 3208 3211 3213 3212 3213 3214 3214 3214 3215 3215 3216 3217 3217 3217 3217 3218 3219 3220 3220 3220 3221 3222 3223 3223 3223 3223
3196 3197 3199 3202 3203 3204 3204 3205 3205 3206 3207 3208 3209 3209 3208 3204 3204 3211 3213 3214 3215 3216 3216 3217 3216 3216 3217 3218 3219 3219 3220 3221 3222 3223 3224 3224 3225 3225 3225 3227 3227 3227 3226
3197 3199 3200 3202 3204 3205 3206 3206 3207 3207 3208 3209 3210 3212 3211 3210 3211 3214 3215 3216 3217 3218 3219 3219 3219 3219 3220 3220 3221 3223 3224 3224 3225 3226 3227 3228 3229 3229 3229 3229 3230 3230 3230
3199 3201 3202 3204 3204 3205 3207 3207 3208 3208 3209 3211 3212 3214 3214 3215 3215 3216 3218 3219 3220 3221 3222 3222 3223 3223 3224 3225 3225 3227 3228 3229 3229 3229 3230 3232 3233 3233 3233 3233 3233 3233 3233
3200 3203 3205 3206 3206 3206 3207 3208 3209 3210 3211 3213 3214 3216 3216 3217 3218 3219 3220 3221 3223 3223 3224 3225 3226 3226 3227 3227 3228 3228 3230 3231 3232 3232 3233 3234 3235 3236 3236 3236 3236 3236 3236
3202 3204 3206 3207 3207 3207 3207 3208 3209 3211 3213 3214 3216 3217 3218 3219 3220 3221 3222 3224 3225 3226 3227 3228 3229 3228 3230 3232 3233 3234 3234 3234 3234 3235 3236 3237 3238 3238 3239 3239 3239 3240 3240
3205 3205 3207 3208 3209 3208 3208 3209 3211 3212 3214 3215 3217 3218 3220 3221 3222 3223 3225 3226 3227 3228 3228 3229 3230 3231 3232 3234 3234 3235 3235 3236 3237 3237 3238 3239 3240 3241 3242 3242 3242 3242 3242
3206 3207 3208 3210 3211 3210 3210 3211 3213 3214 3215 3216 3218 3220 3222 3223 3224 3225 3226 3227 3229 3229 3230 3231 3232 3232 3234 3235 3236 3237 3237 3238 3239 3240 3240 3242 3243 3243 3244 3245 3245 3245 3245
3207 3209 3210 3211 3213 3213 3213 3214 3215 3216 3217 3217 3219 3221 3222 3224 3225 3227 3228 3229 3230 3231 3232 3233 3233 3234 3237 3238 3238 3239 3240 3242 3242 3242 3243 3244 3246 3246 3246 3246 3247 3248 3248
3207 3209 3211 3212 3213 3214 3215 3215 3216 3217 3218 3218 3220 3222 3223 3225 3226 3228 3229 3230 3231 3233 3234 3235 3235 3236 3238 3240 3240 3241 3242 3243 3244 3245 3246 3245 3247 3248 3248 3248 3248 3250 3251
3208 3210 3212 3214 3215 3215 3216 3216 3218 3219 3220 3221 3221 3223 3223 3225 3226 3228 3229 3231 3232 3234 3235 3236 3236 3237 3238 3240 3242 3244 3243 3245 3245 3245 3248 3247 3247 3248 3249 3250 3251 3251 3251
3209 3211 3212 3214 3216 3217 3217 3217 3218 3219 3221 3222 3223 3224 3225 3225 3226 3228 3229 3231 3233 3235 3236 3236 3236 3237 3238 3240 3241 3243 3245 3246 3246 3246 3248 3249 3248 3249 3249 3251 3251 3252 3253
3210 3212 3214 3215 3216 3216 3218 3218 3218 3220 3221 3223 3224 3225 3226 3226 3227 3228 3230 3232 3233 3235 3236 3237 3237 3238 3237 3238 3241 3243 3244 3244 3245 3246 3247 3247 3249 3249 3249 3250 3251 3252 3253
3212 3213 3215 3216 3216 3217 3219 3219 3219 3220 3221 3223 3225 3226 3227 3228 3228 3229 3230 3232 3233 3235 3236 3237 3237 3238 3238 3238 3239 3240 3242 3243 3244 3245 3246 3246 3247 3248 3250 3250 3250 3253 3254
3211 3213 3216 3217 3218 3219 3220 3219 3219 3221 3222 3223 3225 3225 3226 3228 3229 3229 3231 3232 3234 3234 3236 3237 3238 3238 3238 3237 3237 3237 3238 3239 3241 3242 3243 3244 3245 3246 3248 3249 3249 3251 3253
3210 3211 3214 3217 3218 3219 3220 3220 3222 3222 3223 3224 3224 3226 3227 3228 3229 3230 3231 3232 3233 3234 3237 3238 3238 3238 3237 3237 3237 3236 3236 3236 3238 3238 3240 3240 3241 3242 3245 3248 3248 3249 3251
3207 3209 3212 3215 3217 3218 3220 3220 3221 3221 3223 3224 3224 3225 3227 3228 3229 3229 3230 3232 3234 3235 3236 3238 3238 3237 3237 3236 3235 3233 3234 3235 3234 3235 3236 3237 3237 3238 3241 3245 3247 3249 3249
3205 3208 3210 3212 3214 3217 3218 3219 3219 3220 3222 3223 3223 3225 3226 3227 3228 3229 3230 3231 3232 3234 3235 3236 3236 3237 3237 3236 3235 3234 3233 3233 3233 3233 3233 3233 3234 3234 3237 3240 3244 3246 3248
3205 3206 3208 3211 3213 3215 3217 3216 3217 3218 3220 3223 3223 3225 3226 3227 3228 3228 3230 3231 3231 3233 3234 3234 3234 3235 3235 3235 3234 3233 3231 3230 3230 3229 3230 3231 3231 3233 3235 3237 3239 3242 3245
3204 3206 3207 3208 3210 3212 3214 3215 3215 3217 3219 3221 3222 3225 3226 3227 3227 3228 3228 3229 3231 3231 3232 3232 3231 3232 3232 3233 3233 3233 3231 3230 3227 3227 3227 3227 3229 3231 3233 3234 3234 3237 3240
3203 3205 3206 3207 3208 3210 3213 3214 3215 3215 3217 3219 3222 3224 3225 3226 3226 3226 3227 3228 3229 3230 3230 3231 3231 3232 3232 3231 3232 3231 3230 3230 3228 3226 3226 3226 3227 3227 3228 3229 3230 3231 3234
3200 3202 3205 3207 3209 3211 3212 3213 3213 3213 3215 3216 3219 3222 3223 3225 3225 3226 3226 3227 3228 3229 3229 3229 3230 3230 3230 3229 3230 3232 3230 3228 3226 3226 3225 3225 3224 3224 3225 3224 3225 3227 3229
3199 3201 3204 3207 3208 3209 3209 3210 3211 3212 3215 3217 3218 3219 3221 3222 3224 3225 3226 3226 3226 3227 3228 3229 3229 3228 3230 3228 3229 3228 3226 3225 3225 3225 3224 3222 3222 3220 3221 3220 3221 3222 3225
3200 3202 3205 3207 3207 3208 3208 3209 3209 3211 3212 3214 3216 3218 3219 3220 3222 3223 3224 3225 3225 3226 3227 3228 3228 3227 3228 3228 3228 3226 3225 3221 3223 3222 3219 3219 3219 3218 3219 3217 3218 3218 3219
3199 3201 3204 3207 3208 3208 3208 3208 3209 3210 3211 3212 3214 3216 3217 3217 3218 3220 3221 3222 3223 3223 3224 3225 3226 3226 3227 3226 3225 3226 3225 3224 3222 3220 3219 3219 3215 3217 3216 3215 3215 3216 3216